• In Czech Republic
  • List of Countries
  • For 7 days
  • Water Temperature
  • Satellite Maps
  • Weather Map
  • Weather Widgets
  • user-avatar
    Login

    Hourly Weather Prutz

    Today, 23 June, Saturday

    Time Temperature Precipitation Wind Pressure Humidity
    00:00 +5°C° 0 mm 1 mps 637 mmHg 91%
    01:00 +5°C° 0 mm 1 mps 637 mmHg 93%
    02:00 +5°C° 0 mm 1 mps 637 mmHg 93%
    03:00 +4°C° 0 mm 1 mps 637 mmHg 92%
    04:00 +4°C° 0 mm 1 mps 637 mmHg 92%
    05:00 +5°C° 0 mm 1 mps 637 mmHg 85%
    06:00 +7°C° 0 mm 1 mps 637 mmHg 78%
    07:00 +8°C° 0 mm 1 mps 638 mmHg 73%
    08:00 +9°C° 0 mm 2 mps 638 mmHg 63%
    09:00 +12°C° 0 mm 2 mps 638 mmHg 54%
    10:00 +13°C° 0 mm 2 mps 639 mmHg 44%
    11:00 +14°C° 0 mm 2 mps 639 mmHg 42%
    12:00 +14°C° 0 mm 3 mps 639 mmHg 41%
    13:00 +16°C° 0 mm 3 mps 639 mmHg 39%
    14:00 +14°C° 0 mm 3 mps 639 mmHg 42%
    15:00 +14°C° 0 mm 3 mps 639 mmHg 45%
    16:00 +14°C° 0 mm 3 mps 638 mmHg 48%
    17:00 +13°C° 0.1 mm 3 mps 638 mmHg 55%
    18:00 +12°C° 0.1 mm 3 mps 638 mmHg 63%
    19:00 +10°C° 0.1 mm 2 mps 637 mmHg 70%
    20:00 +9°C° 0 mm 2 mps 637 mmHg 78%
    21:00 +8°C° 0 mm 2 mps 637 mmHg 85%
    22:00 +7°C° 0 mm 1 mps 637 mmHg 93%
    23:00 +7°C° 0 mm 1 mps 637 mmHg 93%

    Tomorrow, 24 June, Sunday

    Time Temperature Precipitation Wind Pressure Humidity
    00:00 +6°C° 0 mm 1 mps 636 mmHg 93%
    01:00 +6°C° 0 mm 1 mps 636 mmHg 94%
    02:00 +5°C° 0 mm 1 mps 636 mmHg 93%
    03:00 +5°C° 0 mm 1 mps 636 mmHg 93%
    04:00 +4°C° 0 mm 1 mps 635 mmHg 93%
    05:00 +6°C° 0 mm 1 mps 636 mmHg 85%
    06:00 +8°C° 0 mm 1 mps 636 mmHg 77%
    07:00 +10°C° 0 mm 1 mps 637 mmHg 70%
    08:00 +12°C° 0 mm 1 mps 637 mmHg 63%
    09:00 +13°C° 0 mm 1 mps 637 mmHg 57%
    10:00 +15°C° 0 mm 2 mps 638 mmHg 51%
    11:00 +15°C° 0.1 mm 2 mps 638 mmHg 53%
    12:00 +15°C° 0.1 mm 2 mps 637 mmHg 55%
    13:00 +15°C° 0.1 mm 2 mps 637 mmHg 57%
    14:00 +14°C° 0.7 mm 2 mps 637 mmHg 64%
    15:00 +13°C° 0.7 mm 2 mps 636 mmHg 70%
    16:00 +13°C° 0.7 mm 2 mps 636 mmHg 76%
    17:00 +12°C° 0.6 mm 2 mps 636 mmHg 81%
    18:00 +10°C° 0.6 mm 2 mps 636 mmHg 85%
    19:00 +10°C° 0.6 mm 2 mps 635 mmHg 90%
    20:00 +9°C° 0.3 mm 2 mps 635 mmHg 92%
    21:00 +8°C° 0.3 mm 2 mps 636 mmHg 94%
    22:00 +9°C° 0.3 mm 1 mps 636 mmHg 96%
    23:00 +8°C° 0.1 mm 1 mps 635 mmHg 96%

    Day after tomorrow, 25 June, Monday

    Time Temperature Precipitation Wind Pressure Humidity
    00:00 +8°C° 0.1 mm 1 mps 635 mmHg 97%
    01:00 +8°C° 0.1 mm 1 mps 635 mmHg 97%
    02:00 +7°C° 0.1 mm 1 mps 635 mmHg 97%
    03:00 +7°C° 0.1 mm 1 mps 635 mmHg 97%
    04:00 +7°C° 0.1 mm 1 mps 635 mmHg 97%
    05:00 +8°C° 0.1 mm 1 mps 635 mmHg 94%
    06:00 +8°C° 0.1 mm 1 mps 635 mmHg 92%
    07:00 +8°C° 0.1 mm 2 mps 636 mmHg 90%
    08:00 +9°C° 0.1 mm 2 mps 636 mmHg 85%
    09:00 +9°C° 0.1 mm 2 mps 636 mmHg 81%
    10:00 +10°C° 0.1 mm 2 mps 637 mmHg 77%
    11:00 +12°C° 0.2 mm 2 mps 637 mmHg 73%
    12:00 +13°C° 0.2 mm 2 mps 637 mmHg 69%
    13:00 +14°C° 0.2 mm 2 mps 637 mmHg 65%
    14:00 +14°C° 0.2 mm 2 mps 637 mmHg 64%
    15:00 +13°C° 0.2 mm 3 mps 637 mmHg 64%
    16:00 +13°C° 0.2 mm 3 mps 637 mmHg 64%
    17:00 +13°C° 0.2 mm 3 mps 637 mmHg 69%
    18:00 +13°C° 0.2 mm 2 mps 637 mmHg 75%
    19:00 +12°C° 0.2 mm 2 mps 637 mmHg 81%
    20:00 +10°C° 0.1 mm 2 mps 637 mmHg 85%
    21:00 +8°C° 0.1 mm 2 mps 637 mmHg 90%
    22:00 +8°C° 0.1 mm 1 mps 637 mmHg 95%
    23:00 +7°C° 0 mm 1 mps 637 mmHg 95%

    26 June, Tuesday

    Time Temperature Precipitation Wind Pressure Humidity
    00:00 +7°C° 0 mm 1 mps 637 mmHg 95%
    01:00 +6°C° 0 mm 1 mps 636 mmHg 95%
    02:00 +5°C° 0 mm 1 mps 636 mmHg 95%
    03:00 +5°C° 0 mm 1 mps 636 mmHg 94%
    04:00 +4°C° 0 mm 1 mps 635 mmHg 93%
    05:00 +6°C° 0 mm 1 mps 636 mmHg 85%
    06:00 +8°C° 0 mm 1 mps 637 mmHg 76%
    07:00 +10°C° 0 mm 1 mps 637 mmHg 68%
    08:00 +12°C° 0 mm 1 mps 638 mmHg 58%
    09:00 +14°C° 0 mm 2 mps 638 mmHg 49%
    10:00 +16°C° 0 mm 2 mps 639 mmHg 40%
    11:00 +17°C° 0 mm 2 mps 639 mmHg 39%
    12:00 +18°C° 0 mm 2 mps 639 mmHg 38%
    13:00 +19°C° 0 mm 3 mps 639 mmHg 37%
    14:00 +19°C° 0 mm 3 mps 639 mmHg 40%
    15:00 +19°C° 0 mm 3 mps 639 mmHg 43%
    16:00 +19°C° 0 mm 3 mps 639 mmHg 45%
    17:00 +17°C° 0 mm 3 mps 639 mmHg 53%
    18:00 +16°C° 0 mm 2 mps 638 mmHg 62%
    19:00 +15°C° 0 mm 2 mps 638 mmHg 70%
    20:00 +13°C° 0 mm 2 mps 638 mmHg 79%
    21:00 +11°C° 0 mm 1 mps 637 mmHg 87%
    22:00 +9°C° 0 mm 1 mps 637 mmHg 95%
    23:00 +9°C° 0 mm 1 mps 637 mmHg 95%

    27 June, Wednesday

    Time Temperature Precipitation Wind Pressure Humidity
    00:00 +8°C° 0 mm 1 mps 637 mmHg 95%
    01:00 +8°C° 0 mm 1 mps 636 mmHg 95%
    02:00 +7°C° 0 mm 1 mps 636 mmHg 95%
    03:00 +7°C° 0 mm 1 mps 636 mmHg 94%
    04:00 +7°C° 0 mm 1 mps 636 mmHg 93%
    05:00 +9°C° 0 mm 1 mps 637 mmHg 85%
    06:00 +11°C° 0 mm 1 mps 638 mmHg 76%
    07:00 +13°C° 0 mm 1 mps 638 mmHg 68%
    08:00 +15°C° 0 mm 1 mps 639 mmHg 58%
    09:00 +18°C° 0 mm 1 mps 639 mmHg 48%
    10:00 +19°C° 0 mm 2 mps 640 mmHg 38%
    11:00 +19°C° 0 mm 2 mps 640 mmHg 37%
    12:00 +20°C° 0 mm 2 mps 640 mmHg 37%
    13:00 +21°C° 0 mm 3 mps 640 mmHg 36%
    14:00 +21°C° 0 mm 3 mps 639 mmHg 39%
    15:00 +21°C° 0 mm 3 mps 639 mmHg 42%
    16:00 +21°C° 0 mm 3 mps 639 mmHg 45%
    17:00 +19°C° 0 mm 3 mps 638 mmHg 53%
    18:00 +18°C° 0 mm 3 mps 638 mmHg 62%
    19:00 +17°C° 0 mm 2 mps 638 mmHg 70%
    20:00 +14°C° 0 mm 2 mps 637 mmHg 78%
    21:00 +12°C° 0 mm 1 mps 637 mmHg 86%
    22:00 +10°C° 0 mm 1 mps 636 mmHg 95%
    23:00 +10°C° 0 mm 1 mps 636 mmHg 94%

    28 June, Thursday

    Time Temperature Precipitation Wind Pressure Humidity
    00:00 +9°C° 0 mm 1 mps 636 mmHg 94%
    01:00 +8°C° 0 mm 1 mps 635 mmHg 93%
    02:00 +8°C° 0 mm 1 mps 635 mmHg 91%
    03:00 +8°C° 0 mm 1 mps 635 mmHg 90%
    04:00 +8°C° 0 mm 1 mps 635 mmHg 88%
    05:00 +10°C° 0 mm 1 mps 635 mmHg 80%
    06:00 +12°C° 0 mm 1 mps 636 mmHg 72%
    07:00 +14°C° 0 mm 1 mps 637 mmHg 64%
    08:00 +16°C° 0 mm 1 mps 637 mmHg 57%
    09:00 +17°C° 0 mm 2 mps 637 mmHg 49%
    10:00 +19°C° 0 mm 2 mps 637 mmHg 42%
    11:00 +20°C° 0 mm 2 mps 637 mmHg 40%
    12:00 +20°C° 0 mm 3 mps 637 mmHg 39%
    13:00 +21°C° 0 mm 3 mps 637 mmHg 37%
    14:00 +21°C° 0 mm 3 mps 637 mmHg 40%
    15:00 +21°C° 0 mm 3 mps 637 mmHg 42%
    16:00 +20°C° 0 mm 3 mps 637 mmHg 44%
    17:00 +19°C° 0 mm 3 mps 636 mmHg 52%
    18:00 +18°C° 0 mm 3 mps 636 mmHg 61%
    19:00 +16°C° 0 mm 2 mps 635 mmHg 69%
    20:00 +14°C° 0.1 mm 2 mps 635 mmHg 77%
    21:00 +13°C° 0.1 mm 2 mps 635 mmHg 85%
    22:00 +11°C° 0.1 mm 1 mps 635 mmHg 94%
    23:00 +11°C° 0 mm 1 mps 635 mmHg 94%
    Show more